Tracking 28790 objects as of 19-Apr-2024
HD Live streaming from Space Station
objects crossing your sky now

DELTA 2 R/B

Track DELTA 2 R/B now!
10-day predictions


NORAD ID: 33106
Int'l Code: 2008-032B
Perigee: 2,158.2 km
Apogee: 4,376.9 km
Inclination: 65.2 °
Period: 157.0 minutes
Semi major axis: 9638 km
RCS: 10.82 m2 (large)
Launch date: June 20, 2008
Source: United States (US)
Launch site: AIR FORCE WESTERN TEST RANGE (AFWTR)

Note: This is a ROCKET BODY
Your satellite tracking list
Your tracking list is empty




NASA's NSSDC Master Catalog

Two Line Element Set (TLE):
1 33106U 08032B   24109.18519171 -.00000047  00000-0 -34636-2 0  9992
2 33106  65.2449  28.2516 1150953 344.3753 171.8175  9.17450248530280
Source of the keplerian elements: AFSPC